This is the latest recevied weather packets stored in our database for station/object LRBV. If no packets are shown the sender has not sent any weather packets the latest 10 day(s).
| Time | Temp. | Humidity | Pressure | Rain* | Wind** | Luminosity | Snow |
|---|---|---|---|---|---|---|---|
| 1777879131 | 13.89° C | 44% | 1018 hPa | - | - | - | - |
| 1777878232 | 13.89° C | 44% | 1018 hPa | - | - | - | - |
| 1777877330 | 12.78° C | 47% | 1018 hPa | - | - | - | - |
| 1777876431 | 12.78° C | 47% | 1018 hPa | - | - | - | - |
| 1777875532 | 12.22° C | 51% | 1018 hPa | - | - | - | - |
| 1777874631 | 12.22° C | 51% | 1018 hPa | - | - | - | - |
| 1777873731 | 11.11° C | 62% | 1018 hPa | - | - | - | - |
| 1777872832 | 11.11° C | 62% | 1018 hPa | - | - | - | - |
| 1777871931 | 7.78° C | 71% | 1018 hPa | - | - | - | - |
| 1777871040 | 7.78° C | 71% | 1018 hPa | - | - | - | - |
| 1777870131 | 6.11° C | 81% | 1018 hPa | - | - | - | - |
| 1777869230 | 6.11° C | 81% | 1018 hPa | - | - | - | - |
| 1777868331 | 5° C | 81% | 1018 hPa | - | - | - | - |
| 1777867430 | 5° C | 81% | 1018 hPa | - | - | - | - |
| 1777866531 | 6.11° C | 76% | 1018 hPa | - | - | - | - |
| 1777865630 | 6.11° C | 76% | 1018 hPa | - | - | - | - |
| 1777864728 | 5° C | 76% | 1018 hPa | - | - | - | - |
| 1777863913 | 5° C | 76% | 1018 hPa | - | - | - | - |
| 1777862928 | 5° C | 76% | 1018 hPa | - | - | - | - |
| 1777862030 | 5° C | 76% | 1018 hPa | - | - | - | - |
| 1777861127 | 3.89° C | 81% | 1019 hPa | - | - | - | - |
| 1777860231 | 3.89° C | 81% | 1019 hPa | - | - | - | - |
| 1777859331 | 5° C | 70% | 1019 hPa | - | - | - | - |
| 1777858436 | 5° C | 70% | 1019 hPa | - | - | - | - |
| 1777857612 | 6.11° C | 71% | 1018 hPa | - | - | - | - |
* Rain since midnight (hover to see other rain measurements)
** Current wind speed in m/s (hover to see current wind gust speed)